Location: Boiro
(42.6475°N, 8.8834°W)
Time: 11:41:48
(UTC+01:00)

Altair - Pass Details

Date: 05 December 2021
Orbit: 1501 x 1683 km, 47.2° (Epoch: 17 January)

Event Time Altitude Azimuth Distance (km) Brightness Sun altitude
Rises 22:03:47 0° 294° (WNW) 4,682 10.8 -43.6°
Reaches altitude 10° 22:06:51 10° 293° (WNW) 3,682 10.1 -44.2°
Enters shadow 22:12:58 47° 286° (WNW) 1,905 8.1 -45.3°
